Погода в Дашогузе

Погода в Дашогузе : погода сейчас, прогноз погоды и архив. Всё, что Вы хотите узнать о погоде в Дашогузе!

Поиск расширенной информации на нашем сайте:

Другие новости

Новости СМИ2

Главная страница сайта

Новости сайта

03.07.2017

Напоминаем, что на нашем специализированном сайте Метеоцентр.Азия вы можете получить высокодетализированные автоматические прогнозы погоды по пунктам России, СНГ и мира в авиационном формате (включающие направление и скорость ветра, видимость, явления погоды, количество и форму облачности, нижнюю и верхнюю границу облачности).


Погода в Дашогузе - сегодня

Время (UTC), дата Ветер
(°,м/с) 
Видим.   Явления Облачность Т
(°С)
Тd
(°С)
f(%) Тe
(°С)
Pmin
(гПа)
dP
(гПа)
Po
(мм)
O2
(г/м3)
Тmin Tmax R s Состояние
почвы
00 17.04.18 070 (В) 10 км    10/0 средняя 
[Ac As]
+8.3 +3.4 71 +8  1019.7  -0.1  757  296           
03 17.04.18 010 (С) 10 км    8/3 1500 м средняя 
[Sc|Ac trans]
+7.4 +4.5 82 +7  1021.5  1.8  758  297           
06 17.04.18 020 (С) 10 км    3/3 2000 м 
[Cu hum]
+12.6 +3.4 53 +12  1023.2  1.8  760  292  +7         
09 17.04.18 360 (С) 10 км    9/3 2000 м средняя 
[Cu hum|Ac trans]
+15.6 -0.9 32 +15  1022.5  -0.6  759  290           
12 17.04.18 340 (С) 10 км    8/4 2000 м верхняя 
[Cu hum|Ci fib]
+16.8 -3 26 +17  1022.3  -0.2  759  289           
15 17.04.18 330 (СЗ) 10 км    4/0 средняя 
[Ac trans]
+15.5 -3 28 +15  1023  0.7  760  290    +17.4       
18 17.04.18 250 (З) 10 км    3/0 средняя 
[Ac trans]
+10.2 -2.5 41 +10  1024.7  1.5  761  296    +17.4       
21 17.04.18 250 (З) 10 км    3/0 средняя 
[Ac trans]
+8 -3 46 +8  1025.1  0.2  761  298           
00 18.04.18 350 (С) 10 км    3/0 средняя 
[Ac trans]
+5.2 -0.4 67 +6  1025.7  0.6  761  301           
03 18.04.18 //0 (С) //  н/о    н/о 
                 
06 18.04.18 190 (Ю) 10 км    4/0 верхняя 
[Ci fib]
+16.5 -0.7 31 +17  1027.2  1.3  763  290  +4.4         
09 18.04.18 310 (СЗ) 10 км    8/5 1500 м верхняя 
[Cu hum|Ci sp]
+17.7 -1.9 26 +18  1026.2  -1  762  289           
12 18.04.18 320 (СЗ) 10 км    8/5 1500 м верхняя 
[Cu hum|Ci sp]
+18.2 -2.7 24 +19  1024.4  -1.8  761  288           
15 18.04.18 050 (СВ) 10 км    8/0 средняя, верхняя 
[Ac trans|Ci sp]
+17.2 -2.2 26 +18  1024.6  0.2  761  289    +18.8       
18 18.04.18 040 (СВ) 10 км    8/0 средняя, верхняя 
[Ac trans|Ci sp]
+13.7 -0.2 38 +15  1024.9  0.2  761  292    +18.8       
21 18.04.18 080 (В) 10 км    8/0 средняя, верхняя 
[Ac trans|Ci sp]
+10.3 +0.2 49 +10  1023.7  -1.3  760  295           
00 19.04.18 тихо ()   10 км    4/0 верхняя 
[Ci fib]
+8 +0.2 58 +8  1023.2  -0.6  760  297           
03 19.04.18 060 (СВ) 10 км    ясно 
+10.3 +2.7 59 +11  1022.5  -0.6  759  294           
06 19.04.18 190 (Ю) 10 км    8/3 1500 м верхняя 
[Cu hum|Ci]
+18.2 -0.9 27 +19  1022.2  -0.1  759  287  +7.4         
09 19.04.18 200 (Ю) 10 км    10/4 1500 м верхняя 
[Sc diur, vesp|Cs]
+19.6 -2.2 23 +20  1020.5  -1.6  758  285           
12 19.04.18 120 (ЮВ) 10 км    10/0 средняя 
[Ac As]
+20.4 -1.7 23 +20  1018.6  -1.8  757  284           
15 19.04.18 140 (ЮВ) 10 км    10/0 средняя 
[Ac As]
+19.2 -0.9 26 +20  1017.5  -1.1  756  285    +21.1       
18 19.04.18 140 (ЮВ) 10 км    10/0 средняя 
[Ac As]
+15.2 -0.9 33 +15  1017.1  -0.6  755  288    +21.1       
21 19.04.18 150 (ЮВ) 10 км    10/0 средняя 
[Ac As]
+14.2 -0.5 36 +14  1015.7  -1.4  754  289           
00 20.04.18 140 (ЮВ) 10 км    10/0 
+12 +0.4 45 +11  1013.8  -2  753  290           
Время (UTC), дата Ветер
(°,м/с) 
Видим.   Явления Облачность Т
(°С)
Тd
(°С)
f(%) Тe
(°С)
Pmin
(гПа)
dP
(гПа)
Po
(мм)
O2
(г/м3)
Тmin Tmax R s Состояние
почвы

Для получения пояснительной информации подведите курсор к названию столбца.

ПОГОДА в Дашогузе - архив

Всё, что Вы хотите узнать о погоде в Дашогузе - удобно и подробно!

Выберите нужную дату (начиная с 1 января 2015* года) и нажмите кнопку "Найти".
Будут отображены архивные сводки погоды по пункту Дашогуз, начиная с указанной даты.


Отображать данные в формате CSV (для использования в таблицах Excel)


Внимание! Наш архив погоды предназначен исключительно для личного некоммерческого использования в познавательных целях. Если Вам необходимы официальные справки о состоянии погоды (для производственных, юридических, коммерческих и т.п. целей), обращайтесь в органы Росгидромета.

*Примечание: данная дата относится к архиву по метеостанциям СССР (Россия, СНГ, Балтия).
Архив по метеостанциям Зарубежной Европы и Азии (кроме Китая) хранится 10 дней, по другим регионам земного шара (Китай, Африка, Америка, Австралия, Океания) - 1 день.

Дашогуз - район местоположения метеостанции


Название, широта, долгота, высота метеостанции:
Дашогуз (Ташауз) 41.8°ш. 59.8°д. 82 м над ур. моря [Туркменистан]

Дополнительная информация

В oтличие oт бoльшинства пoгoдных сайтoв мы публикуем пoдрoбную метеoинфoрмацию в детальнoм прoфессиoнальнoм фoрмате.

Характеристики температуры и влажнoсти вoздуха измеряются на высoте 2 м в тени вдали oт зданий и деревьев.
Скoрoсть ветра измеряется на высoте 10 м (на урoвне рoста челoвека скoрoсть ветра ниже в 1.5-2 раза). Если метеoстанция нахoдится в гoрoде или в лесу, тo скoрoсть ветра занижена на 2-4 м/с пo сравнению с oткрытым местoм. Скoрoсть ветра над акватoриями крупных рек и oзёр, а также на вершинах хoлмoв на 2-5 м/с выше, чем в oбычных услoвиях.
Атмoсфернoе давление в разных тoчках местнoсти мoжет значительнo oтличаться oт давления на метеoстанции, в зависимoсти oт услoвий рельефа (при пoдъёме на 10 м давление пoнижается примернo на 1 мм рт.ст.).